Theta_e
317 321 322 322 324 326 328 328 327 328 328 321 317 318 321 322 321 323 323 321 322 320 320 320 320 320 320 320 321 320 320 320 321 320 326 338 328 325 334 334 336 337 342 345 340 335 335 335 336 339 340 339 342 342 342 343 340 338 336 335 336 336 338 338 338 338 339 338 337 338 338 338 336 335 335 334 335 334 334 335 336 338 340 340 341 341 340 341 340 341 339 337 335 331 328 328 327
320 327 326 325 325 326 329 327 323 322 322 317 316 319 319 321 322 322 323 321 322 320 320 320 320 320 320 320 320 321 322 321 321 322 330 332 325 331 335 331 335 336 342 345 339 336 335 336 336 339 340 339 341 342 342 342 339 338 337 337 338 338 339 339 339 338 338 338 338 339 339 338 337 337 337 338 338 337 335 336 337 338 340 340 340 340 340 340 339 339 338 337 335 331 329 329 327
320 326 326 325 326 326 328 326 324 320 317 314 315 320 320 321 322 321 321 321 321 320 319 320 321 320 319 320 320 321 322 322 320 322 330 329 328 332 330 329 334 336 342 344 339 336 335 336 335 337 339 340 341 341 342 340 338 339 339 339 338 339 338 339 338 338 338 338 339 340 339 339 339 339 339 339 339 338 337 337 338 339 340 340 340 339 340 339 338 337 336 336 334 332 331 330 329
317 323 325 325 327 327 329 327 326 320 316 314 314 320 321 320 321 321 320 321 322 320 319 321 321 320 320 321 320 321 320 322 321 321 329 330 331 329 324 326 333 336 341 344 341 336 335 336 336 336 338 340 340 340 341 339 338 340 340 339 338 338 337 337 337 337 337 337 339 340 339 340 340 340 340 339 338 338 337 337 338 339 339 339 339 339 339 338 337 335 335 334 333 333 333 332 331
320 326 325 324 328 328 329 325 323 318 315 316 314 319 321 320 320 320 320 321 321 320 320 320 321 320 320 321 320 320 320 322 321 321 327 329 332 330 323 323 332 336 339 344 341 337 336 336 336 336 337 339 340 339 339 338 339 340 340 340 339 337 337 336 336 337 337 337 339 340 340 340 340 340 340 339 338 337 336 337 338 339 339 339 338 338 337 336 335 333 333 333 332 333 333 332 330
324 327 323 322 327 325 325 322 319 318 319 321 318 319 320 319 320 320 321 321 321 321 320 320 320 320 320 320 320 320 321 322 322 323 327 330 329 329 324 322 331 335 338 343 342 338 337 337 336 336 336 338 339 339 338 339 340 341 340 339 339 336 335 336 337 338 337 337 339 340 340 340 340 339 339 339 337 336 335 336 338 338 338 338 337 337 336 335 333 332 332 331 331 331 330 328 324
324 328 326 323 325 322 322 320 320 320 320 323 319 319 319 318 320 320 321 321 321 320 319 320 320 320 320 320 320 321 321 319 325 327 325 325 324 327 324 321 330 336 337 341 343 340 338 339 337 335 336 337 338 339 338 339 340 341 340 340 339 336 332 334 338 339 337 338 340 340 340 340 340 339 339 338 337 337 336 335 336 337 336 336 336 335 334 333 332 331 330 330 329 328 326 322 315
322 327 327 324 325 324 322 321 322 322 320 321 320 319 319 318 320 320 320 321 321 321 320 320 319 320 320 320 321 322 322 320 324 325 321 320 321 325 324 323 329 335 336 339 343 340 340 340 338 336 336 337 338 338 339 339 340 340 341 340 339 336 332 332 336 339 338 338 340 340 340 340 340 339 338 337 336 336 335 334 334 334 334 334 334 333 333 332 331 330 329 328 327 325 321 314 306
322 325 325 323 325 325 324 323 322 323 322 321 319 319 319 319 320 320 321 321 321 322 320 320 320 320 320 320 321 323 323 321 320 320 319 318 320 321 323 326 328 334 337 338 341 341 341 341 339 337 336 336 337 338 338 339 339 339 340 340 339 337 333 332 335 338 338 339 340 340 340 340 339 338 338 336 335 335 334 333 332 333 333 332 332 331 331 331 330 328 327 326 324 322 314 305 300
323 323 324 325 325 322 321 321 321 322 322 321 320 319 320 320 320 320 320 320 321 321 320 320 320 320 320 319 320 325 324 320 316 317 317 317 320 320 323 329 329 333 337 337 340 341 341 341 339 338 336 336 337 338 338 339 339 338 339 339 339 337 335 333 335 338 338 339 339 339 340 339 339 338 337 336 335 334 333 332 331 331 333 332 330 330 330 329 328 327 325 324 322 316 305 299 299
328 324 322 324 322 319 318 319 321 322 321 321 320 320 320 320 320 320 320 320 321 321 320 319 320 319 320 319 323 325 321 318 318 319 317 317 320 320 324 330 330 332 335 337 339 340 340 340 339 338 338 336 337 339 338 339 339 339 338 338 338 337 335 334 335 338 338 339 339 339 340 339 338 338 337 335 335 333 332 331 330 330 331 331 328 328 328 327 326 325 324 323 318 307 299 299 299
329 328 324 323 321 320 319 319 320 322 323 321 320 319 319 320 319 320 320 321 320 321 320 320 320 320 320 319 325 324 320 321 322 322 318 316 318 322 328 330 331 334 334 336 339 339 339 339 339 338 338 337 337 339 339 339 339 338 337 338 338 337 336 335 335 337 338 338 338 339 339 339 338 337 336 335 334 332 330 328 328 328 329 328 326 326 326 325 324 324 323 321 311 300 298 299 298
328 328 326 324 323 323 322 320 321 323 323 320 320 319 319 319 319 320 319 319 320 320 320 319 320 319 319 320 322 322 321 323 323 322 318 318 320 322 331 332 332 335 335 336 338 338 338 338 338 337 337 337 338 339 339 339 339 338 338 338 338 337 336 335 336 337 337 338 338 339 338 338 337 336 335 334 333 331 329 326 326 327 327 326 325 325 324 324 323 323 322 317 304 297 298 298 298
327 327 325 325 325 323 322 322 322 321 320 320 319 318 318 318 319 319 318 318 318 319 319 318 318 318 318 319 321 325 324 321 321 320 319 323 325 322 330 334 332 335 336 336 336 337 338 336 336 335 335 337 338 339 339 339 339 339 338 338 338 337 336 335 336 336 337 338 338 338 337 337 336 336 334 333 332 329 328 326 325 326 326 325 324 324 323 323 323 322 320 311 299 298 298 298 299
325 327 325 324 324 323 323 324 323 321 320 320 318 318 317 317 318 318 318 317 317 319 318 317 318 317 318 317 322 330 325 320 319 318 320 324 328 326 329 334 333 334 336 336 335 335 336 335 335 332 333 337 338 338 338 339 339 339 338 338 338 337 335 335 336 336 337 337 337 337 337 337 336 335 334 333 331 329 328 326 324 325 325 324 324 323 323 323 322 321 317 305 298 298 298 298 298
323 326 326 324 323 322 322 324 324 321 321 320 318 317 317 317 318 318 318 317 318 318 318 318 318 317 318 316 322 327 322 319 318 317 319 321 326 328 329 333 333 334 335 336 335 334 334 335 336 333 333 336 338 338 338 338 339 339 338 338 338 336 335 335 336 336 336 336 337 337 337 336 335 334 333 332 330 328 328 326 323 324 325 324 324 323 322 322 321 321 315 301 298 298 298 298 298
322 324 325 324 323 321 321 324 323 319 319 319 319 318 317 318 318 318 317 317 317 317 318 317 317 317 318 317 320 322 319 318 318 317 320 320 323 327 328 331 331 332 334 335 335 334 334 335 335 335 335 336 338 339 338 338 338 339 338 338 337 336 336 336 336 336 336 336 336 336 336 335 334 333 332 331 330 328 327 326 322 322 324 324 323 322 322 322 320 320 313 299 297 298 297 298 298
323 324 324 322 323 322 321 321 321 320 319 318 318 318 317 317 318 317 317 317 317 317 317 317 317 318 317 318 318 320 319 318 319 320 323 323 323 326 327 328 329 330 331 332 334 334 334 334 335 335 336 336 337 338 338 337 337 337 337 337 336 336 336 336 336 337 336 336 336 335 334 334 333 332 331 330 329 328 327 327 323 320 322 323 323 322 322 321 320 319 311 298 297 298 297 298 298
323 325 324 323 323 323 321 320 320 321 319 318 318 318 317 317 318 317 317 317 317 317 317 317 318 318 318 317 318 320 320 319 320 321 323 325 325 325 326 326 327 328 330 330 331 332 333 333 334 335 335 335 336 337 337 336 336 336 336 336 336 336 336 336 336 336 336 335 334 333 331 331 331 330 329 328 328 327 326 327 325 320 318 321 323 321 321 320 320 318 309 297 297 297 297 298 297
323 324 323 322 322 322 320 319 320 319 319 319 318 318 317 317 317 317 317 317 317 317 317 317 317 317 319 318 317 320 320 319 321 322 322 324 325 324 325 326 327 326 328 328 328 330 332 333 333 334 335 335 335 336 336 336 335 335 335 335 335 335 335 335 335 335 334 333 333 332 331 330 329 328 328 328 327 327 326 325 325 321 316 319 321 321 320 319 319 318 308 297 297 297 297 299 298
322 322 322 322 321 320 318 318 318 319 319 319 318 318 317 317 317 317 317 318 317 317 316 317 317 316 317 317 316 317 319 319 320 321 321 321 323 324 324 325 326 326 326 327 327 328 330 332 333 333 334 334 334 335 336 336 335 335 335 334 334 335 335 335 334 334 333 332 331 330 330 329 328 328 328 327 327 326 325 324 323 321 316 317 320 320 319 318 318 315 304 297 297 296 297 299 298
321 321 321 321 321 319 318 317 319 320 319 319 319 317 317 317 317 317 318 318 317 317 316 316 317 316 316 316 316 316 318 320 320 320 320 320 320 321 322 322 323 325 327 328 329 328 327 330 333 333 333 333 333 333 334 334 334 334 334 333 334 334 334 334 334 333 333 331 330 330 329 329 328 328 328 327 326 325 324 322 320 318 317 317 320 320 316 316 316 309 299 297 296 296 296 297 298
321 321 320 320 319 318 317 317 320 320 318 318 318 317 317 316 316 317 317 318 317 317 317 317 317 316 316 316 317 318 319 321 321 319 319 320 320 320 320 321 321 322 326 328 329 329 327 328 331 332 333 333 333 333 333 333 333 333 333 333 333 333 334 334 333 333 332 331 330 330 329 328 328 328 327 326 326 325 323 321 318 316 316 317 319 320 315 312 312 306 298 297 296 296 296 296 298
320 320 320 319 317 316 316 317 319 319 319 318 318 318 317 316 316 316 317 317 317 317 317 317 317 316 317 317 317 318 319 319 319 318 318 319 319 320 319 320 320 320 323 326 328 329 329 327 328 330 332 332 333 332 332 333 332 332 332 332 332 331 332 332 332 332 331 331 330 329 329 328 327 327 327 326 325 324 322 321 318 315 316 317 317 317 315 313 311 305 298 296 296 296 297 297 298
318 319 319 318 317 317 317 318 318 318 318 317 318 318 317 316 316 315 316 316 316 316 316 316 316 316 317 318 317 318 319 319 318 317 318 318 317 318 319 320 320 319 320 324 327 328 329 329 327 328 330 331 332 332 332 332 332 332 331 331 331 330 331 331 331 331 330 330 330 329 328 327 327 327 326 325 325 323 321 321 318 315 316 317 315 314 314 314 311 306 299 296 296 297 298 298 298
316 316 316 316 316 317 317 316 316 316 316 316 318 318 317 316 316 316 316 316 316 316 316 316 316 316 317 317 317 317 318 319 318 317 317 317 318 318 318 319 320 320 319 321 324 326 327 328 328 328 329 330 331 332 332 332 331 331 331 330 331 330 330 330 330 330 329 329 329 328 328 327 326 326 325 325 324 322 320 320 319 316 316 317 315 313 314 315 312 307 301 297 296 297 297 297 298
316 316 316 315 315 315 315 314 314 314 314 315 316 317 316 316 316 315 315 316 316 316 317 316 317 317 316 316 317 317 317 318 317 317 317 317 318 318 318 319 320 319 319 319 321 324 325 327 328 328 328 329 330 331 331 331 331 331 330 330 330 330 330 330 330 329 329 329 329 328 328 327 326 326 325 324 323 321 319 320 319 317 317 317 317 314 314 314 312 307 301 297 297 296 297 297 297
315 314 314 314 314 314 314 314 314 314 314 315 315 315 316 315 315 315 315 315 315 316 316 316 316 316 316 316 316 318 318 316 315 316 317 317 317 318 318 319 319 318 319 319 318 321 323 324 326 327 327 328 329 330 331 330 330 330 330 330 330 330 330 330 330 329 328 328 328 328 327 326 326 325 324 324 323 320 318 319 318 318 318 318 318 315 314 313 311 306 301 297 297 296 297 297 297
314 313 313 313 314 314 314 314 315 315 315 316 315 315 316 315 315 315 315 315 315 316 315 316 317 316 317 317 316 318 317 315 315 315 316 317 316 317 317 318 319 318 318 318 318 319 321 323 324 325 326 327 328 328 329 330 329 329 329 329 329 329 330 330 329 329 328 328 328 327 327 326 325 324 324 323 322 320 318 318 318 318 318 318 317 315 313 311 308 304 300 298 297 297 297 297 297
314 313 313 314 314 314 315 315 316 315 315 316 315 314 315 315 315 315 316 316 315 316 316 316 317 316 316 316 316 317 317 316 315 315 316 316 317 317 317 317 317 318 318 319 319 318 319 321 322 324 325 326 327 327 328 328 328 329 329 329 329 329 329 329 328 328 328 327 327 326 326 325 325 324 324 323 321 319 317 317 317 318 318 317 316 314 312 310 306 302 299 298 297 297 297 298 297
314 314 314 315 315 315 316 316 317 316 315 314 314 314 314 315 315 315 316 317 315 316 316 315 315 315 314 315 316 316 317 316 315 315 315 315 316 316 316 316 316 315 315 318 319 319 318 320 321 323 324 325 326 326 327 327 327 328 328 328 328 328 329 328 328 328 327 327 326 325 325 325 325 324 324 323 321 319 317 316 315 316 316 315 314 312 311 308 304 301 299 298 297 297 298 298 297
314 315 315 317 316 316 317 318 318 316 314 313 314 315 314 314 316 316 316 316 315 315 314 314 314 314 314 314 315 316 317 315 314 316 316 315 315 314 314 314 314 313 313 314 317 319 318 319 321 322 323 324 325 326 326 326 326 326 326 327 327 328 328 328 327 327 327 326 326 325 324 324 324 324 324 322 320 318 316 315 314 314 314 313 312 310 309 307 303 300 299 298 297 297 298 298 297
316 316 316 317 318 316 318 319 319 316 315 313 314 315 315 314 315 315 315 315 314 314 314 314 314 314 314 314 315 317 318 316 315 314 313 313 313 312 312 312 312 312 312 312 313 316 318 318 319 321 321 322 324 325 325 325 325 325 326 326 326 327 327 327 326 326 326 325 325 324 324 324 324 324 324 322 320 318 316 314 313 313 313 312 311 309 307 305 303 300 299 297 297 297 297 297 296
318 318 317 318 318 317 317 319 319 318 316 315 314 314 314 314 315 314 314 315 314 314 314 313 314 315 315 316 316 317 317 316 313 312 312 312 312 311 311 311 310 310 310 310 311 313 315 317 318 319 319 319 321 324 324 324 324 325 325 325 325 325 325 325 325 324 324 323 323 323 323 323 322 323 323 321 320 318 316 314 313 312 311 311 310 308 306 305 303 301 299 297 296 296 297 297 296
318 319 318 318 318 317 317 317 318 318 316 316 316 314 314 315 315 315 315 315 314 314 314 314 314 315 315 316 318 318 316 314 312 312 311 311 311 310 309 309 309 309 309 309 310 312 313 315 316 317 317 317 319 322 323 323 324 324 324 324 324 324 324 324 323 323 322 322 322 322 322 321 321 321 321 321 319 318 316 313 312 311 311 310 309 307 305 304 302 300 298 297 296 296 296 297 297
317 318 317 317 316 316 317 317 318 318 317 317 317 316 316 316 315 315 314 314 314 314 314 314 314 315 316 318 318 316 314 313 312 310 309 309 309 308 308 308 308 308 308 308 309 311 312 313 315 315 315 315 317 319 321 322 322 323 323 323 323 323 322 322 322 322 321 321 321 321 321 320 319 319 319 320 319 317 315 313 311 310 310 309 308 306 305 303 302 300 299 297 296 296 297 297 297
317 317 317 317 317 317 317 317 318 318 318 317 317 317 316 315 315 314 314 314 314 314 314 314 315 316 318 319 317 314 313 312 310 309 308 307 306 307 306 306 307 307 307 307 308 309 310 311 313 313 313 313 315 317 319 320 320 321 321 321 321 321 321 321 321 321 320 320 320 320 319 319 318 318 318 318 318 317 315 313 311 309 309 308 307 306 304 303 302 300 299 297 296 297 297 297 297
317 318 318 318 317 317 317 317 318 317 317 316 316 316 315 315 315 314 314 314 314 315 315 315 316 318 318 318 315 312 311 310 308 308 306 306 305 305 305 305 305 306 306 306 306 307 308 309 310 312 312 312 313 314 316 318 318 319 319 319 319 319 320 320 320 319 319 319 318 318 318 317 317 316 316 317 317 317 315 313 311 309 308 307 307 305 304 303 301 300 299 297 297 296 297 297 297
318 318 318 318 318 317 317 318 317 316 315 315 316 315 315 315 314 315 315 315 316 317 317 317 317 315 314 313 312 310 309 308 307 306 305 305 304 304 304 304 304 304 305 305 305 306 307 308 309 309 310 310 311 311 313 314 315 316 316 316 317 317 317 317 318 317 317 317 317 317 316 316 315 315 315 315 315 316 315 314 311 309 307 306 305 304 303 302 301 300 299 298 297 296 297 297 297
319 318 318 318 319 319 319 318 317 316 315 315 316 315 315 315 315 316 316 316 318 318 317 316 315 313 312 311 309 308 307 307 306 305 304 304 303 303 302 303 303 303 303 303 304 304 305 306 307 308 308 308 309 309 309 310 311 313 314 314 314 314 314 314 315 315 315 315 315 315 315 314 314 313 313 313 314 314 314 314 312 309 307 306 305 304 303 302 301 300 298 298 297 297 297 297 297
320 321 320 319 318 319 318 317 317 316 316 316 317 318 318 318 318 317 318 319 318 316 314 314 313 312 311 310 308 307 306 305 305 304 303 303 302 302 301 302 302 302 302 302 303 303 303 304 305 306 306 306 307 308 308 308 309 310 310 310 310 310 310 310 310 310 310 311 311 312 312 312 312 312 312 312 312 312 313 313 312 309 307 305 304 303 302 301 300 299 299 298 297 297 297 297 297
319 322 322 319 318 319 319 319 319 318 318 318 318 322 323 321 320 319 318 319 316 313 312 311 311 310 309 308 307 306 305 304 304 303 303 302 302 301 301 301 301 301 301 301 301 301 301 302 303 304 304 305 306 306 306 307 307 308 308 308 308 308 308 308 308 308 308 308 309 309 309 309 309 310 310 310 310 310 311 311 311 310 307 305 304 303 302 301 300 299 298 298 297 297 296 296 297
319 321 322 320 319 321 321 321 321 320 319 317 317 321 321 319 318 318 318 317 314 311 311 310 309 308 307 306 305 305 304 304 303 302 302 301 301 301 300 300 300 300 300 300 300 300 300 300 301 302 302 303 304 305 305 305 306 306 307 307 307 307 307 307 307 307 307 307 307 307 307 307 307 307 308 308 308 308 309 309 310 309 307 305 304 303 301 300 299 299 299 298 297 296 296 295 296
321 320 319 319 319 319 319 319 319 319 318 317 317 318 320 320 318 318 318 316 313 311 311 310 308 307 306 305 304 304 303 303 302 302 301 300 300 300 300 299 299 300 300 300 299 299 299 299 300 300 300 301 302 303 304 304 305 305 305 306 306 306 306 306 306 306 306 306 306 306 306 306 305 305 305 306 306 306 307 307 307 308 307 305 303 302 302 301 299 299 298 298 297 297 296 295 295
322 319 316 317 316 316 316 317 319 318 318 319 320 319 322 323 320 318 319 315 313 312 310 309 308 306 305 304 303 303 302 301 301 301 300 299 299 299 299 298 299 299 299 299 299 299 298 298 298 299 299 300 300 301 302 303 304 304 304 304 304 305 305 305 305 305 305 305 304 304 304 304 304 303 303 303 304 305 305 305 305 306 306 305 304 302 301 301 299 298 298 298 297 297 296 295 295
319 317 317 316 317 318 318 318 317 317 318 320 321 320 322 325 323 320 319 316 313 312 310 308 307 305 304 303 302 301 301 300 300 299 298 298 298 298 298 297 297 298 298 298 298 298 298 298 298 298 298 298 299 300 300 301 301 302 302 303 303 303 303 303 304 304 304 304 304 304 303 303 303 302 302 302 302 302 303 303 303 304 304 304 304 303 301 300 299 298 298 298 297 297 296 296 295
316 316 317 317 319 320 318 319 317 318 323 322 320 320 320 326 328 319 318 316 312 311 309 308 306 305 304 302 301 300 299 299 298 297 296 296 296 296 296 296 296 296 297 297 297 297 298 297 297 297 297 297 298 298 298 299 299 300 300 301 301 301 302 302 302 302 303 303 303 303 303 303 303 302 302 301 301 301 301 302 302 302 302 302 303 303 302 301 300 299 298 297 297 297 296 296 295
315 315 315 318 321 320 318 319 317 320 326 322 320 321 321 326 327 317 315 315 312 311 310 308 306 304 303 302 301 299 298 297 297 296 296 295 295 295 295 295 295 295 295 296 296 296 296 296 296 297 296 297 297 297 297 297 297 298 298 299 299 300 300 300 301 301 301 301 302 302 302 302 302 302 301 301 301 300 300 300 300 300 301 301 301 301 301 301 300 299 298 297 297 297 296 296 295
314 314 314 318 324 323 322 323 322 324 324 319 319 324 325 325 323 318 316 314 312 312 309 307 305 303 302 301 300 299 298 297 296 295 295 294 294 294 294 294 294 294 294 294 295 295 295 295 295 295 295 296 296 296 296 296 296 296 297 297 298 298 299 299 299 299 299 300 300 301 301 301 301 301 301 301 301 300 300 300 300 300 299 299 299 300 300 300 300 299 298 297 297 297 297 296 295
313 316 318 321 324 325 326 326 326 326 324 320 321 324 326 325 322 319 315 310 309 309 307 305 304 302 302 301 300 299 298 297 296 295 294 294 293 293 293 293 293 293 293 293 294 294 294 294 294 293 294 294 295 295 295 295 295 295 295 295 296 296 297 298 298 298 298 298 299 299 300 300 300 300 300 300 300 300 300 300 299 299 299 299 299 299 299 299 299 299 298 297 297 297 297 297 296
314 317 322 324 323 323 324 325 327 328 328 326 323 324 327 325 319 314 309 307 306 305 304 304 302 301 301 300 299 299 298 297 296 295 294 293 293 293 292 293 293 293 292 292 293 293 293 293 293 292 292 293 293 293 293 293 293 293 294 294 295 295 295 295 296 296 296 297 298 298 298 299 299 299 299 299 299 299 299 300 299 299 299 298 298 298 298 298 298 298 298 298 297 297 296 297 296
317 318 322 324 324 323 323 324 326 326 327 325 324 326 326 320 314 309 307 306 305 304 303 302 301 301 300 300 299 298 297 297 296 296 295 293 292 292 292 292 292 292 292 292 292 292 292 292 292 292 291 291 292 292 292 292 291 291 292 292 293 293 293 294 294 294 295 295 296 296 297 297 298 298 298 298 298 298 298 299 299 299 298 298 298 298 298 298 297 297 297 297 297 297 296 296 296
318 319 323 322 322 323 323 325 325 325 325 323 322 325 322 317 314 309 307 306 304 304 303 301 301 300 299 299 298 298 297 296 295 295 295 293 292 292 292 291 291 291 291 291 291 291 291 292 291 291 291 290 291 291 291 290 290 290 290 290 291 291 292 292 292 292 293 293 294 294 294 295 295 296 296 297 297 297 297 298 298 298 298 297 297 297 297 297 297 297 297 297 297 297 296 296 296
318 320 321 319 320 323 321 322 323 325 324 321 320 322 319 318 317 310 307 307 305 303 302 301 300 299 298 298 297 297 296 296 295 295 294 292 291 291 291 291 290 290 290 291 290 290 290 290 290 289 289 289 289 290 290 289 288 288 288 289 289 289 290 289 289 290 290 291 291 292 292 293 293 294 294 294 295 295 296 296 297 297 297 297 296 296 296 296 296 297 296 296 296 296 296 296 296
318 318 318 318 321 323 321 321 322 323 322 320 320 320 318 318 318 312 309 307 304 303 301 300 299 298 298 297 296 296 296 296 295 295 294 292 291 290 290 290 290 290 290 290 290 290 289 289 289 288 288 288 288 288 288 288 287 287 287 287 288 288 288 288 288 288 288 288 289 289 289 290 291 292 292 293 293 293 294 294 295 295 295 296 296 296 296 296 296 296 296 296 296 296 296 295 295
315 314 316 317 319 321 320 320 322 322 320 320 320 319 318 317 314 312 310 306 303 302 301 300 299 298 298 297 296 296 295 295 295 295 294 292 291 290 290 290 290 290 291 291 291 290 290 289 289 289 288 288 288 287 287 287 287 287 287 286 286 286 286 287 287 286 286 287 287 287 287 288 288 289 290 291 292 292 292 293 293 294 294 294 295 295 295 295 295 295 295 295 295 295 295 295 295
317 315 316 316 318 321 321 320 320 320 319 320 319 319 319 316 309 307 307 305 304 302 300 300 299 298 297 297 296 296 295 295 295 295 294 293 292 291 290 291 291 291 291 291 291 291 291 290 289 289 289 289 288 288 288 288 288 288 287 287 286 286 286 286 286 286 286 286 286 286 286 286 286 287 287 288 289 290 291 292 292 293 293 293 294 294 294 295 295 295 295 295 295 295 295 294 294
319 318 318 318 319 321 321 319 319 319 319 319 318 319 320 313 306 305 305 304 304 302 301 300 298 297 296 295 295 295 295 295 295 295 294 292 292 292 292 292 291 291 291 291 291 291 290 290 289 289 289 289 288 288 288 288 288 288 288 288 287 287 286 286 286 286 286 286 286 286 286 286 286 286 286 286 286 287 288 289 290 291 292 292 293 293 293 293 294 294 294 294 294 294 294 294 294
Wind_Speed
4 7 8 8 9 11 9 4 1 2 2 4 4 2 2 2 0 2 5 5 2 3 3 2 3 2 2 3 3 5 4 3 3 1 1 4 7 12 14 14 14 15 18 15 19 26 25 24 24 22 22 21 20 18 18 16 15 14 13 13 13 12 11 10 10 9 8 7 6 6 5 4 4 4 4 5 5 5 6 6 6 5 5 5 5 6 6 6 5 4 4 3 2 2 4 5 6
4 6 9 8 8 6 3 1 1 3 2 3 1 4 2 1 1 4 7 5 3 3 2 2 3 2 3 4 4 5 3 3 1 2 2 7 11 12 13 15 15 17 19 16 20 26 27 25 24 23 22 22 20 19 18 17 16 15 14 13 13 12 11 11 10 9 8 7 7 6 5 5 4 4 5 5 5 6 6 6 6 5 5 6 6 5 6 5 4 1 1 2 1 2 2 2 3
4 4 7 8 6 5 2 1 2 3 4 2 2 3 0 1 4 6 5 5 4 3 1 2 1 2 2 4 3 2 3 1 3 4 4 8 8 9 13 15 16 17 19 16 20 26 28 26 25 24 23 22 20 20 19 18 17 16 15 15 14 12 12 12 11 10 9 9 8 7 6 5 5 5 6 6 6 6 6 6 5 5 5 6 5 5 5 4 2 2 2 2 1 1 1 2 3
5 3 6 8 3 3 2 1 2 3 5 2 2 2 2 2 4 5 4 5 4 2 1 2 1 1 2 3 2 2 2 2 5 5 3 6 4 8 12 16 16 17 18 15 18 26 28 27 26 25 24 23 21 21 19 19 18 17 16 15 15 13 13 12 12 11 11 10 9 8 7 7 7 7 8 7 7 6 6 6 6 5 5 6 5 4 4 3 1 1 0 2 1 2 3 4 6
6 4 6 7 2 1 1 1 2 3 3 2 2 2 4 3 4 5 3 2 5 3 1 1 0 1 1 2 2 2 1 4 4 4 5 6 5 7 10 16 17 17 19 15 17 25 28 28 27 26 25 24 22 22 20 20 19 17 17 16 15 14 13 13 12 12 11 11 9 9 8 8 8 8 9 8 7 6 6 6 6 6 5 5 5 4 3 2 1 0 0 1 3 4 4 6 9
9 7 5 4 2 0 1 2 3 4 2 2 2 3 5 5 5 5 4 1 5 3 0 1 1 1 1 2 2 1 2 2 1 3 5 8 8 6 8 16 17 16 19 16 16 22 26 27 27 27 26 25 23 22 22 21 20 18 18 17 16 15 14 13 13 12 11 11 10 9 9 10 10 9 9 8 7 6 7 7 6 5 5 4 3 3 2 1 1 1 0 1 3 6 6 9 10
9 6 3 3 2 0 1 4 4 4 1 2 2 4 5 5 5 4 4 2 2 2 2 1 2 2 3 1 2 2 2 2 2 3 4 7 9 7 7 15 17 15 18 17 16 19 24 25 25 28 27 26 25 23 23 22 21 20 19 18 16 15 15 14 13 12 12 11 10 10 10 11 11 11 10 9 9 7 8 8 6 4 4 4 2 2 1 1 1 1 1 1 3 7 8 9 9
7 3 0 1 1 1 2 4 5 4 1 2 2 1 2 4 4 3 4 2 1 1 2 2 1 2 2 1 2 2 5 5 4 5 5 5 8 7 8 15 17 14 17 18 16 17 21 23 23 26 28 27 26 25 24 23 23 21 20 19 17 16 15 15 14 12 12 12 11 11 11 12 12 12 11 10 10 8 9 9 6 3 4 4 3 2 1 1 0 0 1 2 4 8 9 9 7
5 2 1 1 2 2 3 5 5 2 0 3 3 0 1 2 2 1 3 3 2 0 2 4 3 2 2 2 2 3 5 6 7 6 5 4 7 7 8 14 17 15 16 17 17 18 19 21 22 24 27 28 26 26 25 24 24 23 22 20 18 17 16 16 15 13 13 13 12 12 13 13 13 12 12 11 11 9 9 9 6 4 4 5 4 3 2 3 2 2 2 3 6 9 9 7 4
4 3 1 1 2 3 4 4 1 0 0 3 1 0 4 4 3 1 3 4 1 1 2 5 3 4 4 5 2 2 5 8 8 6 5 5 7 7 9 14 15 15 17 18 18 19 18 20 22 23 25 27 27 26 26 25 24 23 22 21 19 18 17 17 16 14 14 14 14 14 14 14 13 13 12 11 10 9 8 8 7 6 4 4 4 4 4 4 3 3 2 4 7 9 6 3 2
1 3 1 1 3 4 4 3 4 3 3 2 1 4 6 4 3 3 3 3 1 1 2 4 1 4 4 5 3 2 9 9 8 8 7 6 7 7 10 13 14 15 18 19 17 18 19 19 21 23 24 27 28 27 26 26 24 23 22 22 20 19 18 18 17 16 15 16 16 16 15 14 14 13 11 11 9 7 7 7 7 8 7 5 6 5 5 4 4 4 4 5 8 7 2 1 3
1 2 0 1 4 4 4 5 5 5 6 4 2 6 4 3 1 4 2 3 2 3 3 5 2 1 2 4 2 5 10 8 8 9 7 7 8 9 10 12 15 16 18 20 18 17 18 20 22 23 24 27 28 27 27 26 25 24 23 22 21 20 19 19 18 18 17 17 17 16 15 14 14 13 12 11 9 7 6 6 5 6 8 7 7 6 6 6 5 5 6 7 7 3 1 3 4
2 4 2 3 4 5 5 4 5 5 5 1 4 3 1 2 0 4 5 5 6 5 2 2 1 2 2 5 1 6 7 6 9 9 7 7 8 11 11 11 15 16 17 20 20 17 17 20 23 23 24 27 29 27 26 26 25 25 24 23 22 21 20 20 19 19 19 18 17 17 15 15 14 14 13 10 9 8 6 6 5 7 9 8 7 7 6 6 6 6 8 7 5 2 2 3 4
2 3 2 3 4 5 5 4 5 4 4 2 4 3 2 0 0 3 4 6 6 1 0 1 3 3 2 4 1 3 5 6 9 9 8 9 8 11 11 10 14 16 16 20 21 20 17 18 22 24 24 27 30 28 27 26 25 25 24 23 22 22 21 20 20 20 19 18 18 17 16 15 15 14 13 11 10 10 10 10 8 8 9 8 8 8 8 7 7 8 9 7 3 3 3 4 4
1 3 1 2 4 5 3 4 3 2 3 2 3 2 2 2 2 0 3 4 4 2 1 2 2 1 3 4 2 2 7 10 9 9 10 10 8 10 12 10 13 16 16 19 21 21 19 18 19 22 25 28 31 29 28 26 26 25 25 24 23 22 22 21 21 20 19 18 18 18 17 16 14 14 13 13 12 13 14 13 12 11 9 9 9 9 9 8 8 9 8 6 4 4 3 3 3
0 3 1 2 4 5 3 3 1 1 2 3 3 2 1 2 3 2 2 0 4 3 1 2 4 4 5 6 3 4 10 12 10 9 9 10 9 9 12 11 12 16 16 18 20 21 21 19 19 20 24 29 31 29 29 28 27 26 25 24 23 23 22 22 21 20 20 19 19 19 18 17 16 16 15 15 15 15 16 15 14 14 12 10 10 10 9 9 9 8 7 6 5 4 3 3 3
0 1 1 3 4 5 3 2 1 1 4 2 3 3 1 3 1 1 1 0 5 8 6 4 5 6 7 11 8 5 11 11 9 9 8 9 10 9 11 12 12 15 18 19 20 21 22 22 21 20 23 28 31 29 28 29 28 27 26 25 24 24 23 22 22 21 21 20 20 19 19 19 19 18 17 17 17 17 17 17 15 16 15 12 11 11 10 10 10 8 7 7 5 4 3 3 3
0 1 2 3 5 5 4 5 4 4 5 5 2 2 3 4 1 1 2 3 5 9 10 7 7 9 12 18 15 10 12 12 10 10 10 11 11 11 12 14 15 17 20 21 22 22 23 24 23 23 24 26 29 29 28 28 28 28 28 27 26 25 24 24 23 22 22 22 21 21 20 20 20 19 18 18 19 18 18 18 17 16 17 15 13 13 11 11 11 9 8 8 6 5 4 4 3
2 2 3 4 4 5 6 7 6 5 5 7 7 6 6 6 4 2 2 7 5 8 11 7 8 9 12 17 17 15 14 13 14 14 13 14 14 14 14 16 18 18 20 23 25 25 25 26 26 26 26 26 28 29 29 28 27 28 29 29 28 27 27 26 25 25 24 23 23 22 21 20 20 19 19 19 19 20 19 19 18 17 18 17 15 15 13 12 11 9 10 9 7 6 6 6 4
4 3 3 5 5 7 7 8 7 5 6 7 6 6 6 7 6 2 5 8 6 8 11 8 9 9 9 9 10 16 16 15 16 16 15 15 17 16 16 17 20 21 22 23 25 26 27 27 28 29 27 27 28 29 30 29 28 28 28 30 31 30 29 28 27 27 26 25 25 24 22 21 19 18 17 18 19 20 20 20 19 18 19 18 17 17 15 14 12 10 11 10 8 8 7 6 4
3 4 4 5 5 7 8 9 9 5 4 4 6 6 8 8 5 4 5 7 6 8 10 9 10 10 9 10 6 6 11 13 15 16 15 15 16 17 17 17 19 21 22 22 23 25 27 28 29 30 29 28 29 30 30 30 29 28 28 30 31 32 32 31 30 29 27 26 26 26 24 22 20 19 18 18 19 20 20 20 19 19 19 19 18 19 18 16 15 14 13 10 9 9 7 5 3
3 4 6 7 6 8 8 10 6 3 3 4 6 7 7 6 6 5 5 7 7 7 10 11 12 11 11 11 10 9 7 8 12 13 14 15 16 17 18 17 17 17 19 22 23 25 27 29 30 30 31 30 30 31 31 30 29 28 28 30 31 31 32 32 32 31 30 28 27 26 25 24 22 21 21 21 21 21 21 20 19 19 20 21 21 21 20 18 18 16 13 11 11 10 8 6 5
4 5 6 7 8 9 9 9 3 2 3 6 6 6 7 8 9 7 7 11 10 9 11 14 14 14 14 12 10 10 11 9 9 12 15 16 17 19 19 18 17 16 18 22 23 23 26 29 30 30 31 31 31 31 31 30 31 29 27 28 30 31 31 31 32 33 32 30 28 27 25 24 25 24 24 23 23 23 22 20 20 20 21 22 23 22 20 19 18 17 14 13 12 11 11 10 8
5 6 6 8 10 11 10 9 5 2 6 7 6 6 8 10 9 7 9 12 12 11 12 14 14 14 14 12 10 11 11 10 10 14 17 17 18 19 19 18 18 17 17 21 22 23 25 27 30 31 32 32 32 32 32 31 32 32 28 26 27 29 30 30 31 33 33 32 30 30 27 25 26 26 25 24 24 24 22 21 20 21 23 23 23 23 21 20 18 18 16 15 15 14 14 11 9
7 7 6 8 8 9 8 8 8 7 8 7 5 8 11 11 8 11 14 14 13 13 14 14 13 12 12 11 11 11 10 11 12 14 17 19 19 17 17 18 19 18 18 21 23 23 24 25 28 32 33 34 34 33 33 32 31 32 31 29 27 29 30 30 30 30 30 31 31 31 30 29 28 28 27 25 24 25 23 21 20 21 23 24 24 23 22 21 20 19 18 17 18 17 14 12 11
5 6 6 7 7 8 9 10 11 10 8 5 5 10 12 9 7 11 15 13 12 12 13 13 11 11 10 10 11 10 9 10 10 12 16 18 18 17 17 18 19 21 21 22 22 23 24 24 27 31 32 33 34 34 34 33 32 32 32 31 29 29 31 30 29 29 29 30 31 32 32 32 30 29 29 27 25 26 24 22 22 22 23 24 24 22 22 22 21 20 20 19 19 18 15 14 12
4 6 7 9 9 10 10 12 15 12 10 10 9 10 12 7 3 8 11 10 10 9 9 9 8 9 9 9 9 8 9 10 12 13 12 12 14 17 19 19 20 22 23 23 23 24 24 24 26 29 31 32 33 34 35 34 33 32 32 32 31 30 31 30 29 29 30 30 31 32 32 32 31 30 30 28 27 27 26 25 24 23 24 25 24 23 24 24 23 21 21 20 20 18 16 15 13
5 6 8 10 10 12 13 13 15 11 8 10 8 8 10 6 4 11 15 12 10 9 10 10 8 9 9 9 9 8 7 10 14 12 9 10 13 16 18 19 21 22 22 23 24 25 24 25 27 28 30 31 33 34 35 35 34 32 32 32 32 30 31 31 29 29 30 30 31 32 33 33 32 31 30 29 28 29 29 27 26 25 26 27 26 25 26 26 23 22 21 20 19 18 16 15 14
4 4 7 11 10 12 15 13 13 12 8 6 4 1 6 7 9 14 16 13 10 10 10 10 8 9 9 9 9 7 7 9 11 10 10 12 14 14 16 17 19 20 21 22 22 23 24 25 26 27 29 31 33 34 34 34 34 33 32 32 32 31 30 32 31 29 30 30 30 31 32 34 33 31 30 29 29 30 30 29 28 28 28 28 27 27 27 25 24 23 22 20 19 18 18 17 15
3 3 5 9 8 9 11 10 12 11 4 7 7 0 4 7 10 11 10 7 7 8 8 8 8 8 9 8 8 7 7 8 7 8 10 12 13 14 14 14 13 13 14 16 18 20 21 23 25 26 28 30 31 32 32 33 33 33 31 31 31 32 31 32 33 31 30 30 30 31 32 34 34 32 30 30 30 30 31 30 30 30 30 29 29 28 28 26 25 25 24 23 21 21 20 19 18
5 6 5 5 4 5 8 9 6 4 0 7 6 3 4 6 10 10 6 1 3 7 8 9 10 10 10 8 8 8 7 7 9 10 10 8 5 4 6 7 7 9 11 10 11 14 17 20 22 23 25 27 29 30 29 29 30 30 29 28 28 30 30 31 32 32 31 30 30 31 32 33 34 33 31 30 31 31 31 32 32 31 31 30 30 30 29 28 27 27 26 25 24 22 21 20 19
5 5 4 3 4 5 7 8 4 6 1 3 6 2 5 7 8 7 7 5 7 9 10 13 12 12 12 9 7 7 6 6 6 9 14 18 20 18 15 14 12 9 8 6 5 7 12 15 17 19 20 22 24 26 26 25 25 26 25 25 26 26 28 29 29 30 30 29 30 30 31 33 34 33 32 31 32 32 32 32 32 32 31 31 31 30 30 29 29 28 27 26 26 24 22 20 19
4 4 5 5 6 5 4 5 3 8 3 2 5 3 5 5 5 7 9 11 11 11 13 16 14 12 11 9 7 6 5 5 9 18 25 27 27 25 23 22 19 15 12 9 7 2 5 8 12 14 15 17 19 21 22 21 19 21 21 22 22 22 24 26 26 27 27 27 28 29 29 31 32 32 32 32 32 33 32 32 32 31 31 31 31 30 30 30 29 29 27 26 26 25 23 21 19
3 4 5 6 6 6 4 4 2 5 5 4 7 7 7 7 8 9 10 11 11 11 14 16 12 9 9 9 7 5 4 9 11 16 24 27 27 26 24 23 20 18 16 14 11 6 3 2 4 8 9 11 14 16 18 18 15 15 17 17 19 19 20 22 23 23 24 25 25 27 28 29 31 31 32 32 32 32 32 32 31 31 31 31 31 31 30 29 29 29 28 26 26 25 24 23 21
5 5 5 6 7 7 7 6 5 4 4 6 7 8 8 8 8 8 10 11 11 14 15 12 9 9 10 8 6 6 10 12 11 17 25 27 27 26 25 25 24 22 20 18 16 11 9 7 3 3 4 6 9 10 12 15 13 11 12 12 14 16 16 17 19 19 21 22 23 24 25 26 28 30 31 32 31 32 32 31 30 31 31 31 31 30 29 28 28 28 28 26 25 24 24 23 22
10 9 8 8 8 7 8 8 7 9 10 8 8 9 7 7 8 10 12 12 13 15 13 10 10 10 7 6 6 10 13 11 13 23 28 28 27 25 25 26 26 26 25 22 20 17 14 10 6 3 1 3 6 7 8 12 12 10 10 9 10 12 12 13 15 16 17 18 19 20 21 23 25 27 30 31 31 30 30 30 29 29 30 31 31 31 31 30 30 29 29 28 26 22 21 22 22
11 9 9 9 8 7 8 9 9 8 8 7 6 8 8 7 9 13 15 13 13 14 10 11 10 5 5 7 9 12 12 11 17 25 27 27 26 25 25 26 27 28 28 27 25 22 19 14 10 7 4 3 5 6 7 10 11 10 10 10 9 10 11 11 12 14 14 15 15 16 18 19 20 23 27 30 31 30 29 28 27 27 29 30 32 33 32 31 31 30 29 28 27 25 22 22 23
9 8 8 8 7 8 9 11 11 6 4 4 5 7 8 8 12 16 16 12 11 12 10 10 4 6 7 8 12 13 10 10 15 20 22 25 26 25 25 26 28 28 28 29 28 25 23 19 16 12 8 4 4 5 6 7 8 8 8 8 9 9 9 11 12 13 14 14 15 16 17 19 19 21 23 28 31 31 30 28 27 28 28 29 31 31 31 31 31 31 30 29 28 29 26 24 27
7 7 7 6 5 7 8 9 9 2 1 3 6 7 7 10 15 17 14 10 10 10 4 3 8 11 10 11 12 11 11 12 13 14 17 22 24 25 26 26 27 27 28 30 29 27 26 23 20 17 13 10 7 4 5 4 4 5 5 5 5 6 5 7 9 10 11 13 15 16 17 18 19 20 22 25 29 31 32 31 29 29 29 29 30 30 30 30 31 32 33 32 30 28 26 26 31
5 5 5 6 5 6 6 4 5 4 3 6 9 8 7 11 15 13 12 9 6 2 9 13 12 13 12 12 11 11 12 12 12 11 13 17 22 24 26 26 26 27 29 30 29 28 27 25 22 20 16 14 12 7 5 5 4 3 4 3 4 5 4 4 6 7 9 11 13 15 16 17 17 18 20 23 26 29 31 32 31 30 30 30 31 31 31 31 33 33 33 34 31 28 26 26 31
5 6 6 7 7 8 6 4 6 6 6 6 6 5 5 8 9 6 6 4 3 9 15 14 11 12 11 12 12 12 12 10 10 10 10 13 17 21 24 25 26 27 29 29 29 28 27 25 23 21 18 16 14 10 7 7 5 4 2 1 1 1 1 3 5 7 9 10 12 14 15 16 16 17 19 20 23 27 29 31 31 30 30 30 31 32 33 32 33 34 34 35 34 33 29 27 29
5 5 5 5 5 5 5 7 7 5 4 3 3 2 3 5 6 6 7 3 7 11 13 12 11 11 11 11 11 10 10 10 9 9 8 10 14 18 22 25 26 27 28 27 28 29 28 26 24 23 21 18 16 13 10 10 9 7 7 7 7 5 4 4 5 5 7 8 9 11 13 14 15 16 18 19 21 23 26 29 30 30 29 29 30 31 32 32 32 34 35 36 36 36 33 28 29
5 3 3 4 4 5 6 6 5 1 3 3 2 1 4 5 5 9 12 1 9 10 11 11 9 10 10 9 8 8 8 8 7 8 8 10 13 16 19 23 25 25 26 27 29 30 29 27 25 24 24 21 19 16 13 12 12 11 10 9 9 9 9 9 9 8 5 4 5 6 8 11 12 14 16 18 20 21 23 26 29 30 29 28 28 30 32 32 33 34 35 36 37 37 34 30 30
4 2 4 5 5 5 4 3 2 4 4 5 4 4 6 5 5 13 12 5 11 8 9 9 8 9 9 8 8 8 8 7 7 8 8 11 14 16 18 21 23 24 25 27 30 30 29 28 26 24 25 24 21 19 16 15 15 14 13 12 11 11 11 11 10 10 8 5 4 4 6 8 10 11 13 15 17 19 21 23 26 28 29 28 27 28 31 32 32 32 34 36 37 36 35 33 32
2 0 2 3 2 2 3 3 4 4 3 4 5 6 4 4 5 11 7 8 9 6 8 7 8 9 8 8 8 7 7 7 7 8 8 11 15 18 18 20 23 24 25 27 28 29 29 28 27 26 25 25 23 21 19 17 16 15 14 14 13 13 12 11 10 10 10 8 5 5 7 8 10 11 11 12 14 17 18 20 22 25 27 29 28 27 29 31 32 32 32 35 36 37 37 35 34
2 2 1 2 3 4 3 4 3 3 3 5 6 6 3 4 6 5 2 8 6 5 6 6 7 7 7 7 7 6 6 6 7 8 9 12 15 17 18 21 24 25 25 26 28 29 29 29 29 28 26 25 23 22 21 19 18 17 17 16 15 14 13 12 11 10 11 10 9 7 7 8 9 11 11 11 12 14 16 17 19 21 24 27 28 28 28 29 31 32 32 34 36 38 38 37 35
1 1 2 4 5 4 3 3 1 2 3 5 7 9 7 3 5 1 4 6 9 7 6 7 7 6 6 6 6 6 5 5 6 7 9 14 16 17 19 22 24 25 25 26 27 28 28 28 28 29 28 26 24 23 22 21 20 20 19 17 16 15 14 13 12 12 12 12 12 11 9 9 9 10 11 11 12 13 14 16 17 19 21 23 26 27 28 29 30 31 31 32 34 37 38 37 37
2 0 2 4 4 1 1 0 1 1 3 4 5 3 8 4 3 2 5 6 10 10 9 10 9 7 6 6 5 5 5 5 6 5 7 11 14 17 20 22 23 24 25 26 26 26 26 26 26 27 27 26 25 24 24 23 22 21 20 19 17 16 14 14 13 13 13 13 13 13 12 11 10 10 10 12 13 13 13 14 15 16 18 20 23 25 27 28 29 30 31 30 31 34 37 37 37
3 2 1 1 2 1 0 0 2 3 4 3 3 6 3 5 5 4 3 6 5 7 9 10 10 8 7 6 5 5 4 5 5 5 6 7 9 14 18 20 21 22 23 24 25 25 25 24 24 25 24 23 23 24 25 25 25 23 22 20 18 16 15 15 15 14 13 13 13 13 13 12 12 11 11 12 13 14 14 14 15 15 16 17 19 22 24 26 28 28 30 31 30 31 34 36 37
5 4 4 3 1 2 2 2 3 3 3 4 1 6 1 3 5 5 3 7 6 9 9 8 9 8 7 6 5 5 5 5 5 5 6 6 9 13 15 17 19 20 21 22 23 23 23 23 23 22 22 22 22 22 23 25 25 25 24 23 21 19 17 15 15 14 13 13 12 12 12 13 13 13 13 14 14 14 14 14 14 15 16 17 18 20 22 24 26 28 28 30 31 30 31 33 36
6 4 4 4 2 3 4 3 4 3 2 5 4 3 1 4 1 2 7 8 7 9 9 9 9 7 7 6 5 5 6 6 6 6 6 7 10 14 15 16 17 19 20 22 23 23 22 22 22 22 22 22 22 22 23 23 24 24 25 24 24 22 20 18 16 15 14 14 13 13 13 13 14 14 14 14 14 14 14 14 14 15 16 17 18 19 21 22 23 26 28 29 30 31 31 32 35
3 0 2 1 3 4 3 4 4 2 3 4 4 3 3 2 4 6 8 8 8 8 8 8 8 6 6 6 6 5 5 5 5 5 5 7 10 13 14 15 16 17 19 21 22 22 21 21 21 22 22 22 22 22 22 23 23 24 25 25 24 24 23 22 21 19 17 16 14 13 13 12 12 13 14 14 14 15 15 14 14 15 16 17 18 19 21 22 23 25 26 28 30 31 31 32 32
1 2 1 3 2 3 1 4 2 0 3 4 3 3 4 1 3 5 7 8 8 7 7 8 6 6 6 5 5 5 4 4 4 4 4 7 10 12 13 14 15 16 17 19 19 19 18 18 19 20 21 22 22 21 22 23 25 26 26 26 25 25 24 24 23 21 19 18 17 15 14 13 12 12 13 14 14 14 14 14 15 16 17 18 18 19 20 21 22 24 25 27 28 30 31 32 32
3 1 2 2 3 2 1 2 1 1 5 4 3 6 6 4 2 3 7 7 7 6 6 6 6 6 6 5 5 4 4 4 4 5 5 7 10 11 11 12 12 14 15 15 16 16 16 16 16 17 18 19 19 19 20 22 25 26 26 26 26 25 24 23 23 23 22 21 21 20 19 17 15 14 13 13 14 14 14 14 16 17 18 19 19 19 20 21 22 24 25 26 27 28 30 32 33
3 2 0 2 0 1 1 1 2 4 6 4 4 7 7 4 2 1 6 7 7 6 5 6 5 5 4 4 4 4 4 4 4 4 4 5 7 7 8 9 10 11 12 12 12 13 14 15 15 16 17 17 18 19 20 21 23 24 24 24 24 24 23 23 23 24 24 24 23 22 22 21 20 18 17 16 16 15 15 15 16 17 18 19 19 19 20 21 22 24 25 26 26 27 29 32 32
3 1 1 1 3 3 2 1 2 4 6 5 5 7 6 2 2 2 4 8 8 7 5 5 3 3 3 3 3 2 2 2 3 3 3 3 4 4 5 6 7 7 8 8 8 9 10 11 12 13 14 15 17 18 19 19 20 21 22 22 22 23 23 22 23 24 24 24 24 23 23 23 22 22 22 21 20 19 18 17 16 17 18 18 19 19 20 20 22 24 25 26 27 27 28 30 31
2 1 2 2 1 1 1 2 3 4 5 5 6 7 4 1 3 4 6 8 7 7 6 5 4 3 3 2 2 2 2 2 3 3 3 4 6 5 4 4 5 5 5 5 5 5 6 8 10 11 12 14 15 16 16 16 16 17 18 20 21 22 22 22 22 23 24 24 25 25 25 25 24 24 24 23 22 21 20 18 18 18 18 18 18 19 19 20 21 23 25 26 27 27 29 29 30
3 1 2 3 2 1 3 5 3 3 4 4 6 8 4 1 3 3 6 6 6 7 6 5 5 5 4 4 4 4 4 4 4 4 4 6 8 8 6 5 4 3 4 4 4 4 5 6 8 10 11 12 14 15 15 15 15 15 15 16 17 17 18 19 20 21 22 23 24 25 25 26 26 26 25 24 23 21 20 19 18 17 17 18 18 19 19 19 21 22 24 25 27 27 29 30 30
Wind_Direction
332 338 330 322 313 310 299 268 281 259 202 248 264 59 78 33 326 319 35 63 74 67 40 335 315 318 292 310 315 309 293 267 291 330 246 175 156 159 181 172 156 167 170 182 184 181 183 182 180 174 175 177 175 177 181 184 187 187 183 178 171 169 171 173 175 173 172 170 163 162 161 159 152 143 136 139 142 143 146 141 138 138 133 125 124 133 129 120 114 116 112 77 65 114 102 84 76
345 333 313 298 290 290 304 301 295 273 236 252 351 53 152 175 88 51 41 42 49 58 21 335 325 320 289 286 283 298 276 228 194 63 111 138 142 165 189 171 160 166 167 183 184 181 183 184 183 177 176 178 178 179 183 186 187 185 180 178 174 174 178 180 182 181 181 176 171 171 174 173 162 155 151 151 150 149 149 147 147 142 133 131 134 129 115 112 116 149 173 91 70 144 126 71 45
340 318 303 293 266 239 285 312 254 293 304 316 40 33 75 11 53 59 49 60 60 61 346 261 255 294 257 248 261 282 271 288 75 59 113 145 144 174 192 169 162 166 168 185 184 183 185 185 186 181 179 179 181 182 185 187 186 185 182 182 178 179 184 186 187 185 184 180 178 179 180 181 174 170 163 159 150 142 146 145 145 143 141 140 135 121 111 113 111 269 243 127 106 237 246 328 344
335 338 309 299 264 218 260 239 243 297 302 318 58 65 78 25 39 55 57 88 109 124 268 258 151 203 230 254 317 323 276 48 66 47 118 159 155 174 184 167 160 167 170 183 185 185 187 188 189 185 181 180 183 186 186 188 186 186 187 186 184 183 186 188 187 185 185 182 183 185 185 187 184 176 164 157 146 134 141 145 141 142 147 137 127 125 123 121 108 284 283 95 23 303 304 312 320
338 341 290 291 310 243 292 282 278 268 275 329 52 85 81 54 36 45 24 101 130 134 255 295 2 194 231 288 315 313 342 61 73 56 102 133 147 168 178 167 160 170 174 178 187 185 188 190 191 188 185 183 184 187 188 189 187 190 191 189 190 186 185 187 186 186 187 186 188 189 191 190 188 181 161 151 152 142 143 143 138 141 142 130 122 123 117 112 84 343 68 48 323 309 317 319 319
325 315 259 253 290 15 336 274 270 258 264 31 13 359 35 39 40 36 325 5 112 116 142 260 303 278 261 224 192 245 30 74 148 79 113 136 154 173 177 169 160 174 177 175 188 187 189 192 193 191 187 185 185 187 189 188 188 193 195 192 195 192 188 188 188 190 191 192 192 194 196 190 186 178 157 155 163 151 150 144 131 134 133 127 125 116 97 77 38 349 261 1 307 305 318 318 316
311 310 238 221 279 60 275 263 267 274 350 54 15 350 357 11 37 16 318 12 78 107 103 296 3 323 281 185 199 237 116 130 152 112 137 138 151 173 171 166 162 177 180 175 188 190 193 195 194 193 190 188 186 188 190 190 190 193 197 196 198 198 194 192 192 194 194 196 197 198 196 191 185 172 159 165 170 153 159 161 142 144 153 147 137 133 112 62 40 5 285 268 293 305 315 314 313
294 294 122 273 283 188 234 261 261 260 170 104 75 358 338 5 38 5 319 332 282 137 148 216 80 299 262 160 236 178 117 118 128 137 159 142 151 175 165 165 167 179 183 177 186 192 197 199 197 196 193 190 188 189 191 193 195 195 197 199 200 200 199 198 197 196 196 201 202 199 196 192 183 171 172 176 177 169 174 182 171 179 205 209 211 211 211 220 234 300 272 257 279 304 312 312 316
256 222 6 322 278 243 241 247 244 248 195 84 68 299 76 34 55 59 308 301 281 114 158 158 130 242 310 321 257 117 115 133 137 149 172 171 171 183 165 168 174 179 183 178 187 196 200 202 200 200 197 193 191 191 193 195 199 199 200 201 201 201 202 204 201 198 199 204 204 200 198 192 178 174 185 190 193 192 195 208 207 202 229 241 238 244 238 228 236 238 247 246 275 302 310 311 329
238 191 311 302 281 272 258 251 243 6 96 80 94 312 58 46 21 10 294 301 315 26 80 99 137 230 310 319 279 119 158 156 140 154 172 178 183 186 170 171 178 180 182 179 190 200 200 200 201 202 201 197 193 193 196 198 202 204 204 203 204 202 203 208 204 199 202 205 206 201 197 191 182 180 189 199 208 207 212 229 235 227 228 238 239 239 229 222 224 229 226 235 278 302 307 318 65
277 189 179 320 291 269 283 341 358 334 333 2 100 82 65 64 14 292 252 270 228 172 154 114 170 241 271 280 264 138 154 152 140 159 168 174 183 179 173 172 176 183 183 181 191 202 201 198 200 203 203 201 196 196 198 200 203 204 207 206 206 206 205 209 205 201 205 207 206 201 194 192 190 189 193 202 215 222 229 242 248 237 227 232 237 230 223 215 212 219 212 240 288 308 302 94 103
291 262 136 276 284 282 324 354 325 324 328 317 50 69 63 89 61 281 303 306 295 269 210 152 165 238 266 271 260 141 143 141 143 165 169 170 180 170 174 178 177 184 185 184 190 201 205 199 200 204 205 204 200 199 201 202 204 205 208 207 207 208 206 209 206 203 208 209 206 201 194 192 192 196 206 213 227 239 244 250 239 218 215 224 226 217 218 211 208 212 215 252 293 303 152 116 109
257 307 351 278 290 303 320 327 301 315 314 341 87 90 87 96 250 312 354 328 306 297 286 105 53 50 281 281 241 146 141 135 154 171 164 157 178 170 170 183 181 182 189 192 191 197 206 203 201 204 206 206 203 203 204 205 206 207 209 209 209 209 208 209 209 207 208 208 204 199 195 195 195 201 215 220 230 234 228 232 212 198 208 212 209 205 210 208 206 212 225 262 283 213 151 126 116
286 318 348 291 309 302 293 278 292 317 303 63 100 146 117 75 305 357 349 305 304 301 122 346 18 45 274 269 286 145 153 164 171 169 152 151 176 175 166 185 188 180 193 199 194 196 203 206 205 206 207 205 204 205 206 208 209 209 211 211 210 210 210 210 212 211 209 207 200 196 196 199 204 208 218 223 225 223 221 226 209 199 206 203 204 203 205 205 205 215 235 262 249 192 157 138 125
315 322 334 283 296 293 277 255 298 336 303 65 115 146 119 231 168 265 282 285 295 117 160 248 152 102 290 285 305 162 179 182 176 163 161 162 168 175 169 184 194 183 196 204 199 200 201 207 208 209 209 205 204 206 208 209 211 211 212 213 211 211 211 210 213 212 207 205 200 198 199 201 208 213 221 226 228 227 231 235 214 200 202 201 204 202 202 207 203 210 237 251 217 192 164 145 134
344 324 322 264 282 286 274 255 276 273 309 67 134 129 64 276 131 195 253 302 297 308 288 201 183 212 272 282 265 149 171 176 170 168 170 170 166 176 180 187 196 189 198 205 204 204 202 204 206 208 207 204 204 207 209 210 212 212 213 214 212 212 212 211 212 210 205 204 203 203 205 206 209 215 223 228 231 233 236 240 220 201 200 200 202 203 202 206 201 200 231 240 210 195 172 159 145
26 334 263 260 265 266 277 282 292 303 327 28 165 140 35 312 114 155 7 163 276 287 270 238 226 222 235 252 248 188 181 177 170 171 168 174 174 180 191 195 198 197 202 205 205 205 202 202 204 205 205 204 204 206 209 211 213 213 213 214 212 212 212 212 211 209 208 207 208 209 211 213 215 220 226 229 230 234 237 240 228 207 202 200 201 204 200 203 200 193 221 233 208 197 187 180 161
200 209 223 247 247 259 328 331 328 347 334 335 315 334 338 318 301 102 7 260 251 271 269 258 248 239 235 242 242 212 191 185 180 180 176 180 183 185 196 203 204 205 209 209 206 204 204 203 203 204 205 204 204 206 208 211 215 215 215 214 213 213 212 212 211 211 212 213 214 214 217 219 222 225 226 228 229 232 236 237 234 219 206 201 200 203 198 201 200 190 216 227 205 201 199 193 171
205 240 240 248 253 278 318 314 319 341 322 318 318 328 335 330 331 22 300 278 280 284 280 278 268 260 250 241 225 197 189 194 192 194 191 189 191 192 197 202 206 209 211 213 211 208 206 204 202 203 205 205 203 205 207 209 214 215 216 216 215 214 214 213 213 213 216 218 219 220 221 222 225 227 227 229 231 232 233 233 235 228 211 203 202 202 197 201 198 190 216 221 200 205 209 194 165
208 219 243 250 263 287 302 307 315 325 328 321 313 338 333 311 312 300 276 281 282 275 275 282 277 271 275 268 221 190 191 201 200 204 205 204 203 202 202 200 205 210 214 218 217 211 207 206 205 204 204 205 204 204 205 206 209 213 214 216 217 216 215 215 215 216 218 221 223 223 223 223 223 225 228 231 232 231 230 230 231 228 214 205 205 204 198 200 196 192 211 213 199 212 217 197 167
203 194 231 258 287 299 300 306 313 335 12 344 311 321 310 296 293 274 277 283 262 256 262 267 273 280 294 312 310 215 200 200 201 207 214 219 217 214 215 212 215 219 219 220 218 214 210 208 208 207 205 205 205 204 205 205 206 211 214 216 217 217 217 217 217 217 218 220 223 224 223 221 219 220 223 224 225 225 226 226 224 220 212 205 206 206 203 200 199 201 210 207 203 216 217 206 196
236 237 245 260 279 284 281 291 313 25 6 305 295 299 301 304 293 270 260 262 251 254 269 274 281 292 295 303 314 303 269 222 202 205 215 223 226 226 226 226 228 226 216 211 215 218 215 211 209 208 206 205 206 204 206 207 207 210 214 214 214 216 218 219 218 217 217 218 220 222 221 217 216 217 218 219 220 220 223 223 217 212 208 205 206 209 209 206 207 213 213 208 212 216 213 208 204
226 248 254 263 270 274 279 291 306 83 306 286 284 292 302 296 284 273 250 250 253 256 267 273 274 277 283 288 290 287 281 260 221 210 215 221 227 230 231 230 229 225 212 207 213 218 218 215 211 209 207 206 207 206 206 208 208 209 211 212 213 214 215 217 218 218 216 216 218 220 220 215 213 214 215 217 217 217 221 221 216 208 205 205 206 209 212 211 213 218 215 210 215 216 215 210 204
240 250 265 272 274 275 279 289 290 266 276 274 276 289 284 276 281 285 263 256 262 265 264 267 270 272 275 277 272 267 266 264 247 231 228 230 235 237 237 232 229 228 217 209 212 214 217 216 213 210 208 206 207 206 206 207 208 209 209 211 213 213 212 215 217 218 216 216 218 218 217 212 209 210 212 216 215 213 216 217 213 206 203 206 208 209 211 215 217 220 217 209 213 217 217 213 209
257 259 268 268 268 277 285 292 287 276 273 266 262 271 266 266 280 281 271 268 267 266 266 266 269 271 269 267 264 262 258 259 254 244 239 239 243 244 241 234 229 227 221 216 214 212 216 217 213 211 210 208 207 206 206 207 208 209 208 209 212 212 210 213 214 214 214 214 215 214 212 208 206 207 209 213 211 207 208 210 209 203 201 205 210 207 206 215 217 217 217 210 213 218 217 214 212
261 277 297 300 296 301 303 296 286 276 272 254 240 259 264 269 284 276 267 265 264 259 260 264 264 262 259 259 257 254 254 253 253 248 243 240 238 235 234 232 227 225 225 224 219 215 216 217 214 212 212 210 208 207 207 207 208 209 209 208 211 211 209 212 213 213 212 210 211 211 210 207 205 205 207 210 209 203 200 204 205 201 200 206 212 205 202 213 216 213 214 210 213 218 217 215 214
313 320 315 308 301 293 282 274 272 267 265 254 241 255 264 269 277 274 268 260 262 262 263 266 267 264 259 260 259 254 251 246 246 248 246 238 225 223 226 227 226 228 229 224 223 221 217 216 215 214 213 212 210 209 209 208 208 209 210 209 210 211 210 211 212 212 212 210 210 210 209 207 205 204 205 208 208 201 197 200 202 200 201 205 211 205 201 212 215 212 213 212 214 216 216 214 214
343 343 318 295 288 281 270 263 265 260 253 240 225 250 271 276 243 254 266 269 267 267 267 266 265 268 267 269 268 263 259 251 246 240 233 231 224 223 224 225 230 235 234 229 227 223 217 215 216 215 213 212 211 209 210 210 210 211 211 210 210 211 211 210 210 211 211 209 209 209 208 206 205 205 205 207 207 202 199 201 200 199 200 203 207 205 205 211 213 212 213 213 214 214 214 211 212
349 350 305 285 281 273 268 261 256 254 245 199 152 277 273 259 240 241 255 263 265 258 258 260 257 260 262 264 267 264 263 260 251 234 227 235 236 235 233 234 239 241 243 243 235 224 218 216 216 216 213 211 211 210 211 211 211 212 213 212 210 210 210 210 209 210 210 208 208 209 208 207 206 205 204 206 207 203 202 201 200 200 201 203 206 206 207 209 208 208 209 208 208 208 210 207 206
283 263 263 282 288 271 271 266 249 248 237 125 112 232 244 254 259 258 261 263 281 281 273 273 266 265 266 268 277 276 272 271 265 256 249 247 245 239 238 244 248 255 260 252 237 227 223 219 217 216 213 211 212 212 211 211 212 212 213 213 211 210 211 210 210 209 209 208 209 210 210 208 208 206 205 207 208 206 204 203 202 202 203 206 207 208 209 207 205 205 205 203 202 204 208 206 204
268 261 246 260 277 270 276 275 234 209 305 108 117 241 249 273 274 275 283 277 303 297 289 282 271 270 272 270 274 276 278 273 266 270 280 296 311 279 259 271 275 283 286 268 241 232 228 223 218 216 213 212 213 212 211 212 212 212 213 213 212 212 212 212 211 210 210 210 211 212 211 210 209 207 206 208 209 209 207 205 205 205 206 208 209 210 210 207 206 206 205 202 199 202 208 207 204
258 266 265 227 241 266 276 278 198 157 290 116 123 239 245 251 269 293 320 319 300 292 284 278 272 272 278 278 273 270 276 284 305 349 11 20 26 27 20 14 9 352 324 304 278 236 225 226 221 216 214 213 213 212 211 213 213 212 213 213 214 214 214 213 212 212 213 213 214 214 212 211 210 208 208 211 211 211 210 208 208 208 208 209 210 212 211 209 207 208 208 206 203 202 206 207 204
242 238 263 251 251 265 270 291 199 144 119 188 180 229 247 247 282 303 303 290 283 280 274 271 270 275 281 283 282 273 283 349 24 32 32 30 29 27 24 23 21 21 20 11 358 312 222 231 226 218 216 214 215 214 211 212 213 212 214 214 214 214 215 214 213 214 215 217 217 218 217 214 212 210 211 214 215 213 213 212 211 210 209 210 212 212 212 212 210 209 209 210 210 206 205 204 200
255 238 252 254 261 285 294 312 328 132 138 212 217 225 241 249 260 269 271 270 270 267 264 266 273 280 278 283 299 305 9 48 44 38 36 34 33 31 29 29 28 30 30 29 24 22 33 344 225 207 213 216 215 215 211 210 210 209 213 216 216 217 218 216 216 218 219 221 221 221 222 219 217 215 214 217 217 216 216 215 214 212 211 211 212 213 213 212 212 212 210 209 212 209 206 204 200
275 276 284 287 287 304 300 297 320 313 270 259 251 245 253 265 271 276 274 274 272 266 267 276 288 287 285 302 338 27 58 61 52 44 40 36 34 32 33 36 38 39 38 40 42 42 43 40 66 160 204 211 208 210 208 206 205 203 204 211 214 217 220 219 219 222 222 223 224 224 226 225 223 220 218 219 219 219 217 217 216 214 213 212 212 213 212 211 211 212 212 210 208 210 212 209 204
270 278 285 290 287 290 289 285 293 297 286 276 274 275 283 293 294 287 276 271 266 265 274 285 286 288 310 356 37 61 67 65 56 49 42 35 33 33 35 38 41 44 44 45 47 47 45 45 53 67 100 183 187 189 190 195 200 201 201 207 210 211 217 218 217 219 221 222 224 226 229 230 228 224 222 221 222 221 219 218 217 216 215 213 213 213 212 211 211 210 212 210 204 204 211 211 206
269 276 275 277 279 279 287 288 283 286 285 279 288 296 299 297 289 278 270 268 268 271 274 270 278 312 25 52 64 67 66 58 52 49 42 36 33 32 35 38 40 42 43 44 45 44 43 45 49 56 69 122 156 165 172 182 189 195 201 210 215 215 219 220 219 220 221 224 226 229 232 234 231 228 225 225 224 223 222 220 219 219 217 215 216 218 216 215 214 212 210 210 205 199 200 205 204
283 283 280 278 277 279 281 281 281 285 284 285 297 293 293 292 281 274 273 275 271 267 262 264 299 47 53 58 65 64 59 50 46 42 37 33 29 30 33 35 37 38 39 41 42 41 41 44 44 49 58 65 100 133 148 169 181 186 192 205 216 222 228 230 231 231 230 230 230 232 234 235 234 232 230 229 228 226 224 223 223 223 220 219 220 221 219 217 214 212 208 206 206 203 200 199 199
279 279 283 280 277 282 275 268 274 292 92 300 305 295 291 285 275 273 275 273 262 257 265 30 64 66 51 52 60 58 52 47 43 36 31 30 27 28 32 33 35 37 38 39 40 40 40 40 40 44 49 47 51 78 94 114 148 161 164 163 177 194 205 217 224 229 233 233 233 235 237 239 238 237 235 232 230 229 227 227 226 226 224 223 222 220 218 217 214 212 209 207 202 201 201 200 202
250 257 269 270 272 275 268 277 312 354 343 300 300 296 289 280 274 275 270 258 269 321 71 70 72 73 63 61 59 54 53 47 42 36 27 27 27 27 29 31 33 36 37 37 37 38 37 39 41 44 44 46 48 52 55 59 82 127 155 150 145 161 169 190 206 218 229 232 232 234 238 242 243 242 240 237 234 233 231 230 228 228 228 226 225 222 219 217 216 213 211 210 202 195 197 200 205
249 242 247 260 267 266 272 324 345 345 324 303 308 299 271 268 273 281 267 249 18 55 75 70 63 69 68 64 59 55 55 48 44 39 27 27 29 30 30 32 34 36 36 35 36 37 37 39 43 43 44 47 51 52 52 52 52 58 57 41 58 156 236 246 246 245 241 239 238 237 241 243 244 245 245 242 239 237 236 233 231 230 231 230 227 226 223 221 219 216 213 211 206 202 200 200 203
269 251 258 281 295 301 319 350 1 354 314 303 23 353 268 284 313 312 288 302 53 61 70 64 56 57 56 56 54 53 56 53 47 39 33 34 35 37 36 34 35 36 37 36 38 39 40 41 42 42 42 43 47 51 61 66 59 48 38 28 26 17 351 323 306 286 256 252 255 249 249 250 249 248 246 245 244 241 239 237 234 232 233 233 230 229 228 225 222 220 216 213 211 211 206 200 202
268 266 332 347 6 12 5 6 10 337 267 273 8 345 263 278 293 274 271 309 79 70 68 68 64 57 55 56 51 47 50 51 51 40 32 33 34 39 41 37 37 38 39 41 42 42 41 42 42 41 40 40 41 45 56 67 66 57 45 34 28 20 10 1 354 351 332 299 289 265 256 258 258 255 250 249 247 245 243 240 238 235 235 236 234 231 229 228 227 224 221 217 215 215 210 204 205
252 284 4 13 27 10 346 350 279 246 273 281 251 228 256 270 243 249 247 124 94 83 75 74 72 69 68 64 54 50 43 37 46 44 34 28 26 33 40 42 42 41 43 45 46 45 43 43 44 43 42 40 39 41 47 57 64 60 51 43 36 28 19 10 2 0 360 346 319 295 282 274 269 267 261 256 253 250 247 245 242 239 237 237 237 235 233 232 231 229 226 223 220 217 214 211 210
227 234 13 16 14 301 278 257 253 266 301 284 228 197 242 274 247 248 225 123 103 98 93 80 74 74 73 70 61 53 44 32 33 39 39 33 26 27 34 42 45 44 46 48 49 49 48 46 46 46 44 42 42 42 43 49 58 62 57 49 40 31 22 14 8 3 2 359 336 306 294 285 280 280 276 267 261 257 255 252 248 243 240 239 239 239 238 235 233 232 229 226 223 221 219 218 217
207 236 312 313 256 235 236 240 254 292 281 256 231 192 203 287 269 262 123 117 120 111 102 88 80 76 71 72 64 54 47 34 29 28 28 31 30 28 31 38 42 43 44 48 51 52 51 48 47 47 44 44 46 45 44 45 50 56 57 53 45 36 27 19 16 10 3 359 349 333 312 296 286 284 285 281 273 265 261 259 256 251 247 245 243 241 241 239 236 235 234 231 227 224 223 221 221
191 289 329 313 269 228 209 216 201 310 267 254 247 204 185 277 292 335 73 128 144 133 129 118 102 91 81 72 61 57 54 43 37 27 21 26 31 33 33 35 37 38 40 45 48 49 50 50 49 49 46 45 47 48 47 45 45 48 50 49 45 38 32 26 21 16 9 0 354 348 336 321 303 290 287 287 285 278 270 266 264 261 257 252 249 246 245 244 241 238 238 237 233 228 226 225 225
91 32 344 335 306 231 125 108 114 237 248 273 305 197 176 215 283 57 70 116 145 146 152 140 123 111 95 81 67 57 54 55 48 33 26 24 26 29 30 31 31 32 35 39 42 44 47 48 48 49 48 46 47 48 49 48 47 48 46 46 43 37 33 30 25 19 15 9 1 354 348 340 329 313 298 291 289 286 281 275 271 268 266 260 256 253 250 249 247 244 241 241 239 234 230 228 228
122 159 144 9 316 322 170 237 179 214 240 246 23 52 153 225 275 286 69 77 100 119 131 133 127 121 106 91 81 64 49 53 50 42 35 26 24 23 23 25 26 27 29 33 38 40 41 43 46 48 46 46 48 49 50 50 49 49 48 47 43 38 34 30 24 18 14 11 4 357 353 347 342 336 326 313 303 293 286 284 282 277 276 273 266 262 258 255 252 249 246 245 244 241 235 232 231
165 174 161 167 247 289 264 257 243 243 260 246 51 40 6 227 288 298 89 79 60 78 93 103 108 108 101 94 86 73 60 47 41 43 38 29 22 17 19 21 21 22 25 31 36 36 37 38 40 43 44 44 46 47 49 50 49 49 50 51 48 43 39 32 23 14 8 7 3 358 353 347 342 338 333 329 323 310 295 289 290 288 285 284 277 270 266 262 258 254 251 248 247 246 243 238 236
192 195 156 164 200 242 255 262 263 268 283 271 286 348 228 188 262 25 86 84 69 74 81 84 87 89 91 89 74 61 54 45 38 36 33 29 23 20 20 20 19 21 24 29 32 32 33 32 32 36 38 40 42 43 45 46 46 47 49 50 50 47 43 38 30 21 15 9 3 360 356 350 344 336 330 326 322 318 309 297 292 293 293 291 285 279 273 268 263 258 255 252 250 249 248 245 242
228 75 89 179 213 206 252 269 256 279 306 279 266 258 243 174 111 94 89 84 81 81 83 86 85 83 81 75 66 56 47 42 38 34 30 25 25 26 25 22 20 21 24 28 28 28 28 28 28 31 32 34 37 38 39 42 43 44 45 46 47 45 43 39 35 30 26 19 11 5 358 351 345 337 332 326 320 317 314 306 297 296 298 296 290 285 279 274 269 264 259 256 254 251 251 250 247
57 60 155 242 237 155 220 281 269 138 272 259 243 263 283 308 107 107 99 91 88 84 81 85 83 79 76 66 63 60 53 45 34 33 31 20 20 24 26 26 25 25 27 29 28 28 29 28 28 28 29 32 34 35 36 38 41 42 42 43 43 42 40 36 34 32 30 29 26 20 11 2 354 342 332 325 319 316 314 310 304 300 299 298 294 289 284 279 274 269 264 261 258 256 254 252 251
117 197 218 267 334 62 143 261 292 239 257 253 245 270 279 269 254 127 121 110 98 89 81 82 76 69 68 63 58 49 40 33 25 30 31 25 22 20 24 29 30 32 33 34 34 34 36 36 35 33 32 31 31 34 36 37 39 41 40 41 40 40 38 34 32 31 31 32 30 27 23 17 11 359 347 335 325 320 318 315 310 306 303 299 297 293 288 283 278 273 269 265 263 260 257 255 254
126 189 177 96 321 298 197 194 215 236 256 258 246 264 267 252 275 160 154 138 116 109 96 82 74 70 70 66 56 37 22 16 13 17 18 21 18 13 18 24 29 34 34 36 38 36 37 38 39 39 38 36 36 37 39 39 39 39 39 40 40 38 36 32 29 27 27 28 26 24 22 21 19 14 6 357 347 339 332 324 317 312 308 304 300 296 293 289 283 277 273 269 267 263 261 259 257
87 112 322 139 178 213 209 207 223 231 255 264 253 262 264 254 329 333 140 129 125 126 115 102 102 108 105 94 78 34 5 357 347 345 338 335 336 345 7 16 22 26 21 22 24 25 28 28 30 35 35 36 38 37 38 39 37 37 37 38 38 36 33 29 26 23 22 22 21 19 18 17 17 16 12 8 4 357 347 335 325 317 312 309 304 300 296 292 287 282 277 273 270 266 262 261 260
87 48 271 233 227 256 297 271 242 228 253 265 258 258 253 255 345 21 83 101 113 125 128 137 150 143 139 156 176 216 239 249 268 272 268 272 279 294 323 339 346 354 357 3 5 9 15 13 18 25 24 26 30 30 31 31 30 30 31 31 32 30 27 24 22 19 17 16 14 13 11 9 10 11 11 10 8 6 359 348 336 326 319 313 308 303 299 295 289 284 280 277 273 268 264 262 262
113 88 243 258 291 345 295 267 236 217 239 249 260 260 246 242 315 46 85 94 104 123 140 152 167 176 186 202 207 212 215 219 229 229 236 250 256 263 273 288 305 327 357 12 16 15 13 10 12 17 20 21 21 22 24 24 22 20 19 21 23 22 20 17 15 13 11 9 7 6 4 2 2 2 3 4 4 4 1 356 348 339 330 322 315 308 304 299 291 285 282 278 275 272 268 265 263